一网星座-0328星 (ONEWEB-0328 )

导读

ONEWEB-0328是英国OneWeb(一网公司)低轨卫星互联网星座的成员卫星,于2021年9月14日成功发射。OneWeb由英国政府与印度企业联合控股,致力于搭建全球低轨卫星通信网络,卫星部署在近地轨道,可提供高速低延迟的网络连接。该卫星的发射,推进了OneWeb第一代648颗卫星星座的组网进程,助力OneWeb实现覆盖全球的卫星通信服务目标。

基本信息
目录编号:
49197
目录名称:
ONEWEB-0328
国际标识:
2021-083M
轨道中心:
EARTH
卫星名称:
一网星座-0328星
卫星全名:
一网星座-0328星 (ONEWEB-0328 )
卫星状态:
在轨 (已飞行1777 天)
发射日期:
2021-09-14 UTC
国别 :
英国 (GB)
星等 :
--
轨道信息
数据来源 国际轨道数据
星历时间: 2026-07-27T13:09:07+0800
17小时前
查看轨道信息
半长轴: 7587.901km
偏心率: 0.0002023
轨道倾角: 87.899°
近地点辐角 96.422°
升交点赤经 312.248°
平近点角 263.714°
近地点: 1208.228km
远地点: 1211.3km
周期: 109.633分钟
每日圈数: 13.134705
详细信息
平衡模式:
三轴稳定
覆盖范围:
全球
运营商:
一网卫星公司
运营商所在国:
英国
制造商(研发单位):
一网卫星公司
制造商所在国:
英国
使用方式:
暂无
卫星简介
OneWeb卫星网络由648颗重约125公斤的微型卫星组成,运行在1200公里的轨道上。 每颗卫星都能够提供至少每秒8千兆位的吞吐量,以使用其高吞吐量的Ku频段有效载荷为家庭和移动平台提供互联网接入。该卫星仍在工作。
2D轨道图
3D轨道图
轨道高度分析图
轨道倾角分析图
轨道综合分析图
查看轨道综合分析图